When you browse on this site, cookies collect data to enhance your experience and personalize the content and advertising you see.
Visit our Privacy Policy to learn more. By continuing to use the site, you agree to this use of cookies and data.
  • în România
  • Lista ţărilor
  • Pe 7 zile
  • Temperatura apei
  • Meteo pe hartă
  • Widget-uri
  • user-avatar
    Intrare

    Meteo pe oră la Sent-Eli

    Astăzi, 25 Ianuarie, Sâmbătă

    Timp Temperatura Precipitaţii Vânt Presiune Umiditate
    00:00 +26°C° 0.3 mm 5 m/s 755 mmHg 93%
    01:00 +26°C° 0.3 mm 5 m/s 755 mmHg 93%
    02:00 +26°C° 0.3 mm 5 m/s 754 mmHg 94%
    03:00 +26°C° 0.8 mm 5 m/s 754 mmHg 94%
    04:00 +26°C° 0.8 mm 5 m/s 754 mmHg 94%
    05:00 +26°C° 0.8 mm 5 m/s 754 mmHg 93%
    06:00 +27°C° 1.7 mm 4 m/s 755 mmHg 90%
    07:00 +28°C° 1.7 mm 4 m/s 756 mmHg 86%
    08:00 +28°C° 1.7 mm 4 m/s 756 mmHg 83%
    09:00 +29°C° 1.8 mm 4 m/s 756 mmHg 81%
    10:00 +29°C° 1.8 mm 4 m/s 756 mmHg 80%
    11:00 +29°C° 1.8 mm 4 m/s 756 mmHg 78%
    12:00 +29°C° 0.8 mm 4 m/s 756 mmHg 79%
    13:00 +29°C° 0.8 mm 4 m/s 755 mmHg 80%
    14:00 +29°C° 0.8 mm 4 m/s 754 mmHg 82%
    15:00 +29°C° 0.2 mm 4 m/s 754 mmHg 83%
    16:00 +28°C° 0.2 mm 5 m/s 754 mmHg 85%
    17:00 +28°C° 0.2 mm 5 m/s 754 mmHg 87%
    18:00 +27°C° 0.1 mm 5 m/s 755 mmHg 88%
    19:00 +27°C° 0.1 mm 6 m/s 755 mmHg 89%
    20:00 +27°C° 0.1 mm 6 m/s 756 mmHg 90%
    21:00 +27°C° 0.3 mm 6 m/s 756 mmHg 91%
    22:00 +27°C° 0.3 mm 6 m/s 756 mmHg 91%
    23:00 +27°C° 0.3 mm 6 m/s 756 mmHg 91%

    Mâine, 26 Ianuarie, Duminică

    Timp Temperatura Precipitaţii Vânt Presiune Umiditate
    00:00 +26°C° 0.4 mm 6 m/s 755 mmHg 92%
    01:00 +26°C° 0.4 mm 6 m/s 755 mmHg 93%
    02:00 +26°C° 0.4 mm 6 m/s 754 mmHg 93%
    03:00 +26°C° 0.2 mm 6 m/s 754 mmHg 93%
    04:00 +26°C° 0.2 mm 6 m/s 754 mmHg 93%
    05:00 +26°C° 0.2 mm 6 m/s 754 mmHg 93%
    06:00 +27°C° 0.3 mm 6 m/s 755 mmHg 91%
    07:00 +27°C° 0.3 mm 6 m/s 756 mmHg 88%
    08:00 +28°C° 0.3 mm 6 m/s 756 mmHg 86%
    09:00 +28°C° 0.5 mm 6 m/s 756 mmHg 85%
    10:00 +29°C° 0.5 mm 6 m/s 756 mmHg 85%
    11:00 +29°C° 0.5 mm 6 m/s 756 mmHg 84%
    12:00 +29°C° 0.3 mm 6 m/s 755 mmHg 82%
    13:00 +30°C° 0.3 mm 6 m/s 755 mmHg 79%
    14:00 +30°C° 0.3 mm 6 m/s 754 mmHg 77%
    15:00 +29°C° 0.1 mm 6 m/s 754 mmHg 79%
    16:00 +29°C° 0.1 mm 6 m/s 754 mmHg 82%
    17:00 +28°C° 0.1 mm 6 m/s 754 mmHg 84%
    18:00 +28°C° 0.1 mm 6 m/s 754 mmHg 86%
    19:00 +27°C° 0.1 mm 6 m/s 755 mmHg 88%
    20:00 +27°C° 0.1 mm 6 m/s 755 mmHg 90%
    21:00 +27°C° 0.1 mm 6 m/s 756 mmHg 90%
    22:00 +27°C° 0.1 mm 6 m/s 756 mmHg 90%
    23:00 +27°C° 0.1 mm 6 m/s 756 mmHg 89%

    Poimâine, 27 Ianuarie, Luni

    Timp Temperatura Precipitaţii Vânt Presiune Umiditate
    00:00 +27°C° 0.1 mm 6 m/s 755 mmHg 89%
    01:00 +27°C° 0.1 mm 6 m/s 755 mmHg 89%
    02:00 +27°C° 0.1 mm 6 m/s 754 mmHg 89%
    03:00 +27°C° 0.2 mm 6 m/s 754 mmHg 89%
    04:00 +27°C° 0.2 mm 7 m/s 755 mmHg 89%
    05:00 +27°C° 0.2 mm 7 m/s 755 mmHg 89%
    06:00 +27°C° 0.1 mm 7 m/s 755 mmHg 86%
    07:00 +28°C° 0.1 mm 7 m/s 756 mmHg 82%
    08:00 +29°C° 0.1 mm 7 m/s 756 mmHg 78%
    09:00 +29°C° 0.1 mm 6 m/s 756 mmHg 75%
    10:00 +30°C° 0.1 mm 6 m/s 756 mmHg 72%
    11:00 +30°C° 0.1 mm 6 m/s 756 mmHg 68%
    12:00 +30°C° 0.1 mm 6 m/s 756 mmHg 68%
    13:00 +30°C° 0.1 mm 6 m/s 755 mmHg 68%
    14:00 +30°C° 0.1 mm 6 m/s 754 mmHg 68%
    15:00 +29°C° 0.1 mm 6 m/s 754 mmHg 72%
    16:00 +29°C° 0.1 mm 6 m/s 754 mmHg 76%
    17:00 +28°C° 0.1 mm 6 m/s 754 mmHg 80%
    18:00 +28°C° 0.1 mm 6 m/s 755 mmHg 81%
    19:00 +28°C° 0.1 mm 6 m/s 755 mmHg 82%
    20:00 +27°C° 0.1 mm 6 m/s 756 mmHg 83%
    21:00 +27°C° 0.1 mm 6 m/s 756 mmHg 84%
    22:00 +27°C° 0.1 mm 7 m/s 756 mmHg 85%
    23:00 +27°C° 0.1 mm 7 m/s 756 mmHg 86%

    28 Ianuarie, Marţi

    Timp Temperatura Precipitaţii Vânt Presiune Umiditate
    00:00 +27°C° 0.1 mm 7 m/s 755 mmHg 85%
    01:00 +27°C° 0.1 mm 7 m/s 755 mmHg 84%
    02:00 +27°C° 0.1 mm 7 m/s 754 mmHg 84%
    03:00 +27°C° 0.1 mm 7 m/s 754 mmHg 84%
    04:00 +27°C° 0.1 mm 6 m/s 754 mmHg 85%
    05:00 +27°C° 0.1 mm 6 m/s 754 mmHg 85%
    06:00 +27°C° 0 mm 6 m/s 755 mmHg 82%
    07:00 +28°C° 0 mm 6 m/s 755 mmHg 79%
    08:00 +28°C° 0 mm 6 m/s 756 mmHg 76%
    09:00 +29°C° 0 mm 6 m/s 756 mmHg 73%
    10:00 +30°C° 0 mm 6 m/s 756 mmHg 70%
    11:00 +30°C° 0 mm 6 m/s 756 mmHg 66%
    12:00 +30°C° 0.1 mm 6 m/s 755 mmHg 67%
    13:00 +30°C° 0.1 mm 5 m/s 754 mmHg 69%
    14:00 +30°C° 0.1 mm 5 m/s 754 mmHg 70%
    15:00 +29°C° 0.1 mm 5 m/s 753 mmHg 73%
    16:00 +29°C° 0.1 mm 5 m/s 753 mmHg 75%
    17:00 +28°C° 0.1 mm 5 m/s 753 mmHg 78%
    18:00 +28°C° 0.1 mm 5 m/s 754 mmHg 80%
    19:00 +27°C° 0.1 mm 6 m/s 754 mmHg 82%
    20:00 +27°C° 0.1 mm 6 m/s 755 mmHg 84%
    21:00 +27°C° 0.2 mm 6 m/s 755 mmHg 85%
    22:00 +27°C° 0.2 mm 6 m/s 755 mmHg 87%
    23:00 +27°C° 0.2 mm 6 m/s 755 mmHg 88%

    29 Ianuarie, Miercuri

    Timp Temperatura Precipitaţii Vânt Presiune Umiditate
    00:00 +26°C° 0.1 mm 6 m/s 755 mmHg 88%
    01:00 +26°C° 0.1 mm 6 m/s 754 mmHg 88%
    02:00 +26°C° 0.1 mm 6 m/s 754 mmHg 88%
    03:00 +26°C° 0.2 mm 6 m/s 754 mmHg 88%
    04:00 +26°C° 0.2 mm 7 m/s 754 mmHg 88%
    05:00 +26°C° 0.2 mm 7 m/s 754 mmHg 88%
    06:00 +27°C° 0.1 mm 7 m/s 755 mmHg 84%
    07:00 +28°C° 0.1 mm 7 m/s 755 mmHg 81%
    08:00 +28°C° 0.1 mm 7 m/s 756 mmHg 77%
    09:00 +29°C° 0.1 mm 7 m/s 756 mmHg 73%
    10:00 +30°C° 0.1 mm 7 m/s 756 mmHg 69%
    11:00 +32°C° 0.1 mm 7 m/s 755 mmHg 64%
    12:00 +30°C° 0.1 mm 7 m/s 755 mmHg 66%
    13:00 +30°C° 0.1 mm 7 m/s 754 mmHg 67%
    14:00 +30°C° 0.1 mm 7 m/s 754 mmHg 68%
    15:00 +29°C° 0 mm 7 m/s 753 mmHg 71%
    16:00 +29°C° 0 mm 7 m/s 753 mmHg 74%
    17:00 +28°C° 0 mm 6 m/s 753 mmHg 77%
    18:00 +27°C° 0 mm 7 m/s 754 mmHg 79%
    19:00 +27°C° 0 mm 7 m/s 754 mmHg 81%
    20:00 +26°C° 0 mm 7 m/s 755 mmHg 84%
    21:00 +27°C° 0.1 mm 7 m/s 755 mmHg 83%
    22:00 +27°C° 0.1 mm 7 m/s 755 mmHg 83%
    23:00 +27°C° 0.1 mm 7 m/s 755 mmHg 82%

    30 Ianuarie, Joi

    Timp Temperatura Precipitaţii Vânt Presiune Umiditate
    00:00 +27°C° 0.1 mm 7 m/s 755 mmHg 83%
    01:00 +27°C° 0.1 mm 7 m/s 754 mmHg 84%
    02:00 +26°C° 0.1 mm 7 m/s 754 mmHg 84%
    03:00 +26°C° 0.1 mm 7 m/s 754 mmHg 85%
    04:00 +26°C° 0.1 mm 7 m/s 754 mmHg 86%
    05:00 +26°C° 0.1 mm 7 m/s 754 mmHg 86%
    06:00 +27°C° 0.1 mm 7 m/s 755 mmHg 86%
    07:00 +27°C° 0.1 mm 7 m/s 756 mmHg 86%
    08:00 +27°C° 0.1 mm 7 m/s 756 mmHg 86%
    09:00 +28°C° 0.1 mm 7 m/s 756 mmHg 81%
    10:00 +29°C° 0.1 mm 7 m/s 756 mmHg 75%
    11:00 +30°C° 0.1 mm 7 m/s 756 mmHg 69%
    12:00 +30°C° 0 mm 7 m/s 755 mmHg 69%
    13:00 +30°C° 0 mm 7 m/s 755 mmHg 69%
    14:00 +31°C° 0 mm 8 m/s 754 mmHg 69%
    15:00 +29°C° 0.1 mm 7 m/s 754 mmHg 73%
    16:00 +28°C° 0.1 mm 7 m/s 754 mmHg 78%
    17:00 +27°C° 0.1 mm 7 m/s 754 mmHg 82%
    18:00 +27°C° 0.1 mm 7 m/s 754 mmHg 84%
    19:00 +27°C° 0.1 mm 7 m/s 755 mmHg 86%
    20:00 +26°C° 0.1 mm 7 m/s 756 mmHg 88%
    21:00 +26°C° 0.1 mm 7 m/s 756 mmHg 88%
    22:00 +26°C° 0.1 mm 7 m/s 756 mmHg 87%
    23:00 +26°C° 0.1 mm 7 m/s 756 mmHg 87%
    Arată mai mult